SCP
0 0 0 0 0 0 0 0 0 0 0 0 0 0 0 0 0 0 0 0 0 0 0 0 0 0 0 0 0 0 0 0 0 0 0 0 0 0 0 0 0 0 0
0 0 0 0 0 0 0 0 0 0 0 0 0 0 0 0 0 0 0 0 0 0 0 0 0 0 0 0 0 0 0 0 0 0 0 0 0 0 0 0 0 0 0
0 0 0 0 0 0 0 0 0 0 0 0 0 0 0 0 0 0 0 0 0 0 0 0 0 0 0 0 0 0 0 0 0 0 0 0 0 0 0 0 0 0 0
0 0 0 0 0 0 0 0 0 0 0 0 0 0 0 0 0 0 0 0 0 0 0 0 0 0 0 0 0 0 0 0 0 0 0 0 0 0 0 0 0 0 0
0 0 0 0 0 0 0 0 0 0 0 0 0 0 0 0 0 0 0 0 0 0 0 0 0 0 0 0 0 0 0 0 0 0 0 0 0 0 0 0 0 0 0
0 0 0 0 0 0 0 0 0 0 0 0 0 0 0 0 0 0 0 0 0 0 0 0 0 0 0 0 0 0 0 0 0 0 0 0 0 0 0 0 0 0 0
0 0 0 0 0 0 0 0 0 0 0 0 0 0 0 0 0 0 0 0 0 0 0 0 0 0 0 0 0 0 0 0 0 0 0 0 0 0 0 0 0 0 0
0 0 0 0 0 0 0 0 0 0 0 0 0 0 0 0 0 0 0 0 0 0 0 0 0 0 0 0 0 0 0 0 0 0 0 0 0 0 0 0 0 0 0
0 0 0 0 0 0 0 0 0 0 0 0 0 0 0 0 0 0 0 0 0 0 0 0 0 0 0 0 0 0 0 0 0 0 0 0 0 0 0 0 0 0 0
0 0 0 0 0 0 0 0 0 0 0 0 0 0 0 0 0 0 0 0 0 0 0 0 0 0 0 0 0 0 0 0 0 0 0 0 0 0 0 0 0 0 0
0 0 0 0 0 0 0 0 0 0 0 0 0 0 -0 0 0 0 0 0 0 0 0 0 0 0 0 0 0 0 0 0 0 0 0 0 0 0 0 0 0 0 0
0 0 0 0 0 0 0 0 0 0 0 0 0 0 0 0 0 0 0 0 0 0 0 0 0 0 0 0 0 0 0 0 0 0 0 0 0 0 0 0 0 0 0
0 0 0 0 0 0 0 0 0 0 0 0 0 0 0 0 0 0 0 0 0 0 0 0 0 0 0 0 0 0 0 0 0 0 0 0 0 0 0 0 0 0 0
0 0 0 0 0 0 0 0 0 0 0 0 0 0 0 0 0 0 0 0 0 0 0 0 0 0 0 0 0 0 0 0 0 0 0 0 0 0 0 0 0 0 0
0 0 0 0 0 0 0 0 0 0 0 0 0 0 0 0 0 0 0 0 0 0 0 0 0 0 0 0 0 0 0 0 0 0 0 0 0 0 0 0 0 0 0
0 0 0 0 0 0 0 0 0 0 0 0 0 0 0 0 0 0 0 0 0 0 0 0 0 0 0 0 0 0 0 0 0 0 0 0 0 0 0 0 0 0 0
0 0 0 0 0 0 0 0 0 0 0 0 0 0 0 0 0 0 0 0 0 0 0 0 0 0 0 0 0 0 0 0 0 0 0 0 0 0 0 0 0 0 0
0 0 0 0 0 0 0 0 0 0 0 0 0 0 0 0 0 0 0 0 0 0 0 0 0 0 0 0 0 0 0 0 0 0 0 0 0 0 0 0 0 0 0
0 0 0 0 0 0 0 0 0 0 0 0 0 0 0 0 0 0 0 0 0 0 0 0 0 0 0 0 0 0 0 0 0 0 0 0 0 0 0 0 0 0 0
0 0 0 0 0 0 0 0 0 0 0 0 0 0 0 0 0 0 0 0 0 0 0 0 0 0 0 0 0 0 0 0 0 0 0 0 0 0 0 0 0 0 0
0 0 0 0 0 0 0 0 0 0 0 0 0 0 0 0 0 0 0 0 0 0 0 0 0 0 0 0 0 0 0 0 0 0 0 0 0 0 0 0 0 0 0
0 0 0 0 0 0 0 0 0 0 0 0 0 0 0 0 0 0 0 0 0 0 0 0 0 0 0 0 0 0 0 0 0 0 0 0 0 0 0 0 0 0 0
0 0 0 0 0 0 0 0 0 0 0 0 0 0 0 0 0 0 0 0 0 0 0 0 0 0 0 0 0 0 0 0 0 0 0 0 0 0 0 0 0 0 0
0 0 0 0 0 0 0 0 0 0 0 0 0 0 0 0 0 0 0 0 0 0 0 0 0 0 0 0 0 0 0 0 0 0 0 0 0 0 0 0 0 0 0
0 0 0 0 0 0 0 0 0 0 0 0 0 0 0 0 0 0 0 0 0 0 0 0 0 0 0 0 0 0 0 0 0 0 0 0 0 0 0 0 0 0 0
0 0 0 0 0 0 0 0 0 0 0 0 0 0 0 0 0 0 0 0 0 0 0 0 0 0 0 0 0 0 0 0 0 0 0 0 0 0 0 0 0 0 0
Wind_Speed
2 2 2 2 3 2 3 3 4 4 4 5 4 5 5 5 5 4 3 8 8 8 9 9 9 9 9 8 8 8 8 8 7 7 6 6 6 5 5 4 4 4 4
2 2 2 3 2 2 2 3 3 3 3 4 5 4 4 4 5 5 4 6 9 9 8 9 9 9 8 8 8 8 8 8 7 7 7 6 6 5 5 5 4 4 4
2 3 2 2 2 2 3 3 4 3 3 4 4 4 4 4 4 5 5 4 5 8 9 9 8 8 8 8 8 8 8 7 7 6 6 6 6 5 5 5 5 5 5
2 3 3 2 2 2 2 3 3 3 3 3 3 3 3 3 4 4 4 5 4 4 6 9 8 8 8 8 8 8 8 7 7 6 6 6 6 6 6 5 5 6 5
3 3 2 2 2 3 2 3 3 2 3 3 3 3 3 3 3 4 5 5 4 4 4 6 8 8 7 7 7 7 7 7 6 6 6 6 6 6 6 6 6 6 6
3 3 2 2 2 2 2 3 3 3 2 2 3 4 3 3 3 3 3 3 4 4 4 4 4 5 7 7 6 6 6 6 6 6 5 5 5 5 6 6 6 6 5
2 2 2 2 2 2 2 3 3 3 2 2 3 3 3 3 3 3 3 3 4 3 3 4 3 3 3 6 7 6 6 6 6 5 5 5 5 6 6 6 5 5 5
2 2 2 2 2 2 2 2 3 2 1 1 2 2 2 3 3 3 2 2 3 2 3 3 3 3 2 2 4 6 6 6 5 4 3 4 4 5 5 5 5 5 4
1 2 2 2 2 2 2 2 2 3 2 1 1 2 3 1 1 2 2 2 3 2 2 2 3 3 3 2 3 5 6 5 5 4 3 3 3 4 4 4 4 4 4
1 1 2 2 2 1 2 2 2 2 3 2 1 1 1 3 2 1 2 2 2 2 2 2 2 2 2 2 3 4 6 5 6 5 4 3 3 3 3 3 3 3 3
0 1 1 2 2 1 1 1 2 2 2 2 2 1 1 2 2 2 1 2 2 2 1 1 1 2 2 2 2 3 5 5 5 5 4 3 3 3 3 2 2 3 3
0 0 1 1 1 1 2 1 2 2 2 2 2 2 2 2 2 2 2 1 1 2 2 1 1 2 2 2 2 3 4 4 4 4 4 4 3 3 3 3 2 2 2
1 2 1 2 1 2 2 2 1 2 3 3 3 2 2 2 2 2 2 1 0 1 2 1 1 1 2 1 2 3 3 3 3 3 4 4 4 3 3 3 3 3 3
3 2 2 2 2 2 2 2 1 2 2 2 3 2 1 1 2 2 3 3 1 1 1 2 1 1 1 1 2 3 2 3 3 2 3 3 3 3 3 3 3 3 3
2 2 3 2 2 2 2 2 1 2 2 2 2 2 2 1 2 2 2 3 3 2 2 2 1 2 1 1 2 1 1 3 3 2 2 2 2 2 2 3 3 3 3
2 3 2 2 2 2 2 2 1 1 2 2 2 2 2 1 1 2 2 1 2 3 2 1 1 1 1 1 2 1 1 4 4 3 2 2 2 2 2 2 2 3 3
3 3 3 3 3 2 2 2 2 2 2 2 2 3 3 2 2 2 2 2 1 2 2 1 1 1 0 1 2 1 1 2 2 3 3 2 2 2 2 2 2 3 3
2 3 3 3 3 3 3 3 3 3 3 3 3 3 3 2 2 2 2 2 2 2 2 1 1 1 1 1 1 1 2 1 1 3 3 3 2 2 2 3 3 3 2
2 2 2 3 3 3 3 3 3 3 4 4 4 4 3 3 3 2 3 2 2 2 2 2 1 0 0 1 1 1 2 2 2 2 3 3 2 2 2 3 3 2 2
2 2 3 3 3 3 3 3 3 3 3 3 3 3 4 4 4 4 3 3 3 2 2 2 1 0 0 1 0 0 1 1 2 2 2 2 2 3 3 3 3 3 2
2 2 2 2 3 3 3 4 4 4 3 3 2 3 3 4 5 5 4 4 4 3 2 2 1 0 1 0 1 1 1 1 2 1 1 2 1 1 2 3 3 3 3
1 1 2 2 2 3 4 6 5 3 3 3 3 3 3 3 5 6 6 5 6 5 4 3 2 2 2 2 2 1 1 0 2 1 1 2 1 2 2 2 3 3 4
2 2 2 2 2 3 4 5 5 4 3 3 3 3 2 2 2 2 3 3 4 5 6 5 4 4 3 4 3 2 2 2 3 1 0 2 1 2 2 3 4 4 3
2 2 2 2 2 3 4 4 4 3 2 3 3 3 3 2 2 2 2 2 1 2 3 3 4 4 3 3 4 3 3 2 1 1 1 1 2 2 3 2 4 3 3
2 2 2 2 2 3 4 4 3 2 2 2 2 2 3 3 3 3 3 2 1 1 1 2 3 2 3 3 3 2 1 1 1 2 1 1 2 2 2 2 3 3 3
2 2 2 2 3 3 3 4 4 2 2 2 2 2 3 3 4 5 4 4 3 2 1 0 0 1 1 1 3 3 3 2 1 2 1 1 1 1 2 2 1 2 2
Wind_Direction
74 64 55 53 52 56 66 65 58 56 54 51 55 60 54 48 44 35 29 53 66 73 78 79 77 72 69 70 72 71 70 69 69 76 79 79 73 64 56 53 53 54 55
95 80 66 57 52 55 66 73 66 61 57 57 51 51 52 48 45 41 37 42 53 64 71 71 69 67 65 65 67 67 65 63 63 68 71 73 71 66 61 57 60 64 63
101 100 88 70 54 62 73 75 67 63 64 58 49 44 48 46 46 43 41 38 37 49 59 64 62 60 59 61 62 63 60 60 59 60 61 64 69 67 64 64 66 66 66
101 101 96 83 69 72 75 81 71 72 63 60 53 39 39 41 45 45 45 43 39 37 45 56 57 55 52 54 57 57 53 52 54 56 57 60 60 61 61 62 59 59 60
92 102 100 93 85 79 71 85 68 78 79 67 63 47 37 39 37 46 46 43 42 41 38 44 49 49 46 45 48 50 50 49 52 54 54 57 62 65 64 62 60 58 58
95 97 98 97 98 91 75 80 84 68 74 69 69 54 39 36 39 41 39 39 41 42 39 39 34 32 36 36 38 40 43 45 48 52 51 54 61 68 68 63 60 57 55
103 106 99 94 100 104 108 107 97 81 60 56 72 44 25 34 42 36 34 37 36 35 39 39 34 31 18 22 27 32 31 34 38 43 46 55 62 66 64 61 57 53 50
112 113 118 109 112 112 104 109 106 101 73 60 101 91 29 3 8 21 25 39 27 27 33 34 32 28 20 11 15 28 27 27 29 31 37 55 66 68 63 58 57 54 48
124 115 119 117 114 129 146 149 138 128 134 55 73 126 134 204 318 349 8 21 18 22 14 16 29 20 18 16 3 17 24 24 27 28 34 48 62 70 64 55 52 53 48
138 128 126 126 133 126 150 171 146 139 139 144 77 54 121 150 144 339 338 354 8 12 359 11 14 9 11 10 8 19 20 21 21 23 26 33 41 51 62 59 49 46 47
123 137 143 139 143 145 161 166 146 141 147 158 159 140 97 77 103 142 249 324 346 340 339 345 358 352 353 355 347 9 16 16 16 18 22 31 31 34 42 48 46 38 38
302 170 154 153 159 166 178 187 175 162 163 157 156 155 157 154 167 151 168 236 295 306 329 345 351 336 334 340 339 4 11 14 16 20 24 28 33 36 33 35 30 24 18
227 219 188 182 187 198 194 177 176 182 176 169 172 177 173 176 159 151 143 165 237 306 327 327 316 329 326 336 328 351 8 19 10 15 20 21 30 32 26 22 17 11 2
212 199 190 190 192 192 195 180 184 200 178 181 183 172 157 178 163 162 158 151 137 327 329 297 311 315 323 329 329 350 1 14 19 13 9 13 16 20 21 11 1 356 355
205 186 181 183 189 187 187 177 187 212 187 186 188 177 169 183 167 169 164 164 157 178 259 276 292 304 317 317 341 12 1 4 8 5 8 16 9 356 1 1 356 350 345
194 177 179 180 185 187 179 180 194 210 190 198 184 177 184 185 170 159 165 177 163 164 200 244 245 281 313 332 347 11 353 353 358 2 8 9 2 344 350 338 344 347 346
193 188 190 185 188 192 185 181 204 199 200 205 198 191 203 185 172 164 150 154 157 149 171 258 282 309 336 330 344 359 347 347 342 350 350 355 355 353 358 351 343 330 326
197 192 188 188 195 198 194 194 209 206 204 203 205 192 202 185 182 169 160 172 173 166 164 208 278 312 286 296 330 341 337 333 325 335 338 337 340 350 353 349 346 341 332
188 186 184 199 209 206 203 208 207 205 210 205 198 192 194 175 185 181 172 175 176 161 153 165 225 270 291 348 11 342 336 332 321 321 322 324 329 343 345 345 346 347 342
185 195 201 211 215 210 206 205 200 205 212 208 199 195 191 187 192 187 181 178 164 149 147 153 192 248 257 301 62 325 322 322 312 330 329 323 326 324 322 323 327 325 319
195 202 198 214 219 209 208 201 201 203 204 205 208 206 204 203 200 190 183 177 164 160 158 160 185 216 243 217 226 232 253 302 300 304 319 317 324 320 312 304 299 303 306
190 184 199 209 219 225 218 206 198 196 199 199 209 218 220 218 221 209 199 185 173 172 177 173 183 203 232 220 206 200 201 291 293 300 293 293 309 288 286 277 284 286 289
185 192 207 192 219 247 232 210 202 188 193 201 205 206 212 213 217 200 206 201 198 198 188 176 182 207 212 208 186 196 207 210 236 260 200 284 293 275 277 284 280 279 282
191 203 214 215 227 256 244 228 212 190 189 206 202 198 194 202 199 185 176 177 200 217 210 192 195 213 214 200 192 193 200 214 260 277 172 255 285 274 286 287 292 281 282
197 197 196 207 221 254 241 219 199 175 185 211 203 193 191 195 198 179 161 171 188 261 228 179 193 206 207 197 166 134 137 142 261 271 205 213 268 286 289 284 294 302 297
208 200 216 220 222 242 248 227 202 174 182 200 205 210 207 203 200 187 179 178 192 221 196 146 353 318 292 218 191 177 176 178 207 249 224 198 243 286 306 296 303 318 307